timestamp,surface_pressure_avg,surface_temp_avg,battery_voltage,lat,long
2022-07-22 00:09:01+00:00,236.4498,18.1,12.09,47.84626,-54.09684
2022-07-22 00:19:01+00:00,237.523,18.1,12.01,47.84626,-54.09684
2022-07-22 00:29:01+00:00,238.1464,18.2,12.01,47.84626,-54.09684
2022-07-22 00:39:01+00:00,237.0598,18.48,12.01,47.84626,-54.09684
2022-07-22 00:49:01+00:00,238.4381,18.77,12.01,47.84626,-54.09684
2022-07-22 00:59:01+00:00,241.1014,18.91,12.01,47.84626,-54.09684
2022-07-22 01:09:01+00:00,240.0714,19.05,12.01,47.84626,-54.09684
2022-07-22 01:19:01+00:00,238.7931,19.09,12.01,47.84626,-54.09684
2022-07-22 01:29:01+00:00,240.7964,19.1,12.01,47.84626,-54.09684
2022-07-22 01:39:01+00:00,240.9014,19.17,12.01,47.84626,-54.09684
2022-07-22 01:49:01+00:00,238.8347,19.19,12.01,47.84626,-54.09684
2022-07-22 01:59:01+00:00,238.5298,19.18,12.01,47.84626,-54.09684
2022-07-22 02:09:01+00:00,240.9164,19.1,12.01,47.84626,-54.09684
2022-07-22 02:19:01+00:00,243.5564,19.1,12.01,47.84626,-54.09684
2022-07-22 02:29:01+00:00,244.4614,19.17,12.01,47.84626,-54.09684
2022-07-22 02:39:01+00:00,249.6447,19.2,12.01,47.84626,-54.09684
2022-07-22 02:49:01+00:00,254.8698,19.29,12.01,47.84626,-54.09684
2022-07-22 02:59:01+00:00,254.6631,19.3,12.01,47.84626,-54.09684
2022-07-22 03:09:01+00:00,253.0547,19.1,12.01,47.84626,-54.09684
2022-07-22 03:19:00+00:00,260.6747,19.07,12.01,47.84626,-54.09684
2022-07-22 03:29:00+00:00,268.1614,19.03,12.01,47.84626,-54.09684
2022-07-22 03:39:00+00:00,270.7131,19.0,12.01,47.84626,-54.09684
2022-07-22 03:49:00+00:00,272.4847,18.8,12.01,47.84626,-54.09684
2022-07-22 03:59:00+00:00,278.3481,18.68,12.01,47.84626,-54.09684
2022-07-22 04:09:00+00:00,284.6447,18.19,12.01,47.84626,-54.09684
2022-07-22 04:19:00+00:00,289.4531,17.9,12.01,47.84626,-54.09684
2022-07-22 04:29:00+00:00,294.5464,17.9,12.01,47.84626,-54.09684
2022-07-22 04:39:00+00:00,298.2764,17.97,12.01,47.84626,-54.09684
2022-07-22 04:49:00+00:00,301.8331,18.16,12.01,47.84626,-54.09684
2022-07-22 04:59:00+00:00,307.1397,18.19,12.01,47.84626,-54.09684
2022-07-22 05:09:00+00:00,311.2213,18.0,12.01,47.84626,-54.09684
2022-07-22 05:19:01+00:00,308.3097,18.0,12.01,47.84626,-54.09684
2022-07-22 05:29:01+00:00,307.1897,18.0,12.01,47.84626,-54.09684
2022-07-22 05:39:01+00:00,309.7997,18.0,12.01,47.84626,-54.09684
2022-07-22 05:49:01+00:00,312.5464,18.03,12.01,47.84626,-54.09684
2022-07-22 05:59:01+00:00,312.7364,18.08,12.01,47.84626,-54.09684
2022-07-22 06:09:01+00:00,314.6348,18.09,12.01,47.84626,-54.09684
2022-07-22 06:19:00+00:00,318.1213,18.1,11.93,47.84626,-54.09684
2022-07-22 06:29:00+00:00,318.1746,18.1,11.93,47.84626,-54.09684
2022-07-22 06:39:00+00:00,317.948,18.1,11.93,47.84626,-54.09684
2022-07-22 06:49:00+00:00,321.0131,18.1,11.93,47.84626,-54.09684
2022-07-22 06:59:00+00:00,319.623,18.0,11.93,47.84626,-54.09684
2022-07-22 07:09:00+00:00,315.6197,17.96,11.93,47.84626,-54.09684
2022-07-22 07:19:00+00:00,316.408,17.8,11.93,47.84626,-54.09684
2022-07-22 07:29:00+00:00,318.2546,17.7,11.93,47.84626,-54.09684
2022-07-22 07:39:00+00:00,313.4164,17.67,11.93,47.84626,-54.09684
2022-07-22 07:49:00+00:00,309.9463,17.7,11.93,47.84626,-54.09684
2022-07-22 07:59:00+00:00,309.993,17.5,11.93,47.84626,-54.09684
2022-07-22 08:09:00+00:00,307.08299999999997,17.65,11.93,47.84626,-54.09684
2022-07-22 08:19:00+00:00,300.363,17.98,11.93,47.84626,-54.09684
2022-07-22 08:29:00+00:00,297.573,18.2,11.93,47.84626,-54.09684
2022-07-22 08:39:00+00:00,293.1797,18.2,11.93,47.84626,-54.09684
2022-07-22 08:49:00+00:00,285.7964,18.29,11.93,47.84626,-54.09684
2022-07-22 08:59:00+00:00,279.0031,18.39,11.93,47.84626,-54.09684
2022-07-22 09:09:00+00:00,275.7481,18.4,11.93,47.84626,-54.09684
2022-07-22 09:19:01+00:00,271.4147,18.4,11.93,47.84626,-54.09684
2022-07-22 09:29:01+00:00,264.6497,18.43,11.93,47.84626,-54.09684
2022-07-22 09:39:01+00:00,259.5998,18.47,11.93,47.84626,-54.09684
2022-07-22 09:49:01+00:00,253.8114,18.48,11.93,47.84626,-54.09684
2022-07-22 09:59:01+00:00,246.8198,18.44,11.93,47.84626,-54.09684
2022-07-22 10:09:01+00:00,244.4031,18.4,11.93,47.84626,-54.09684
2022-07-22 10:19:01+00:00,239.8064,18.41,12.01,47.84626,-54.09684
2022-07-22 10:29:01+00:00,230.9465,18.46,12.01,47.84626,-54.09684
2022-07-22 10:39:01+00:00,227.9548,18.47,12.01,47.84626,-54.09684
2022-07-22 10:49:01+00:00,231.8464,18.42,12.01,47.84626,-54.09684
2022-07-22 10:59:01+00:00,230.6348,18.43,12.01,47.84626,-54.09684
2022-07-22 11:09:01+00:00,224.5481,18.49,12.01,47.84626,-54.09684
2022-07-22 11:19:01+00:00,224.0398,18.5,12.09,47.84626,-54.09684
2022-07-22 11:29:01+00:00,227.7314,18.5,12.09,47.84626,-54.09684
2022-07-22 11:39:01+00:00,226.9264,18.49,12.09,47.84626,-54.09684
2022-07-22 11:49:01+00:00,223.6831,18.48,12.09,47.84626,-54.09684
2022-07-22 11:59:01+00:00,222.9448,18.5,12.09,47.84626,-54.09684
2022-07-22 12:09:01+00:00,223.3848,18.5,12.09,47.84626,-54.09684
2022-07-22 12:19:01+00:00,222.088,18.56,12.17,47.84626,-54.09684
2022-07-22 12:29:01+00:00,224.5047,18.6,12.17,47.84626,-54.09684
2022-07-22 12:39:01+00:00,228.2031,18.6,12.17,47.84626,-54.09684
2022-07-22 12:49:01+00:00,229.8031,18.59,12.17,47.84626,-54.09684
2022-07-22 12:59:01+00:00,231.3598,18.55,12.17,47.84626,-54.09684
2022-07-22 13:09:01+00:00,232.6847,18.5,12.17,47.84626,-54.09684
2022-07-22 13:19:01+00:00,232.9214,18.5,12.25,47.84626,-54.09684
2022-07-22 13:29:01+00:00,232.3031,18.5,12.25,47.84626,-54.09684
2022-07-22 13:39:01+00:00,235.3614,18.47,12.25,47.84626,-54.09684
2022-07-22 13:49:01+00:00,236.7714,18.4,12.25,47.84626,-54.09684
2022-07-22 13:59:01+00:00,236.2698,18.34,12.25,47.84626,-54.09684
2022-07-22 14:09:01+00:00,237.7481,18.29,12.25,47.84626,-54.09684
2022-07-22 14:19:00+00:00,241.9831,18.2,12.25,47.84626,-54.09684
2022-07-22 14:29:00+00:00,240.4697,18.19,12.25,47.84626,-54.09684
2022-07-22 14:39:00+00:00,238.6197,18.2,12.25,47.84626,-54.09684
2022-07-22 14:49:00+00:00,243.2264,18.2,12.25,47.84626,-54.09684
2022-07-22 14:59:00+00:00,249.1531,18.1,12.25,47.84626,-54.09684
2022-07-22 15:09:00+00:00,248.6964,18.07,12.25,47.84626,-54.09684
2022-07-22 15:19:00+00:00,249.2331,18.2,12.33,47.84626,-54.09684
2022-07-22 15:29:00+00:00,258.7314,18.0,12.33,47.84626,-54.09684
2022-07-22 15:39:00+00:00,266.4897,17.79,12.33,47.84626,-54.09684
2022-07-22 15:49:00+00:00,265.4014,17.89,12.33,47.84626,-54.09684
2022-07-22 15:59:00+00:00,266.6897,18.1,12.33,47.84626,-54.09684
2022-07-22 16:09:00+00:00,277.0214,17.8,12.33,47.84626,-54.09684
2022-07-22 16:19:00+00:00,283.8798,17.7,12.33,47.84626,-54.09684
2022-07-22 16:29:00+00:00,285.8763,17.82,12.33,47.84626,-54.09684
2022-07-22 16:39:00+00:00,291.0297,17.9,12.33,47.84626,-54.09684
2022-07-22 16:49:00+00:00,300.788,17.83,12.33,47.84626,-54.09684
2022-07-22 16:59:00+00:00,303.4113,17.87,12.33,47.84626,-54.09684
2022-07-22 17:09:00+00:00,305.998,17.9,12.33,47.84626,-54.09684
2022-07-22 17:19:00+00:00,312.628,17.8,12.25,47.84626,-54.09684
2022-07-22 17:29:00+00:00,318.1396,17.8,12.25,47.84626,-54.09684
2022-07-22 17:39:00+00:00,319.6413,17.8,12.25,47.84626,-54.09684
2022-07-22 17:49:00+00:00,320.1929,17.86,12.25,47.84626,-54.09684
2022-07-22 17:59:00+00:00,319.6714,17.9,12.25,47.84626,-54.09684
2022-07-22 18:09:00+00:00,319.6263,18.0,12.25,47.84626,-54.09684
2022-07-22 18:19:00+00:00,320.5712,18.09,12.17,47.84626,-54.09684
2022-07-22 18:29:00+00:00,325.0963,18.18,12.17,47.84626,-54.09684
2022-07-22 18:39:00+00:00,325.9163,18.2,12.17,47.84626,-54.09684
2022-07-22 18:49:00+00:00,326.483,18.22,12.17,47.84626,-54.09684
2022-07-22 18:59:00+00:00,329.5663,18.3,12.17,47.84626,-54.09684
2022-07-22 19:09:00+00:00,332.918,18.2,12.17,47.84626,-54.09684
2022-07-22 19:19:00+00:00,330.5013,18.21,12.17,47.84626,-54.09684
2022-07-22 19:29:00+00:00,327.2263,18.34,12.17,47.84626,-54.09684
2022-07-22 19:39:00+00:00,330.42800000000005,18.49,12.17,47.84626,-54.09684
2022-07-22 19:49:00+00:00,328.7029,18.54,12.17,47.84626,-54.09684
2022-07-22 19:59:00+00:00,323.5847,18.6,12.17,47.84626,-54.09684
2022-07-22 20:09:00+00:00,320.0196,18.4,12.17,47.84626,-54.09684
2022-07-22 20:19:01+00:00,319.1863,18.45,12.09,47.84626,-54.09684
2022-07-22 20:29:01+00:00,317.4095,18.56,12.09,47.84626,-54.09684
2022-07-22 20:39:01+00:00,313.498,18.57,12.09,47.84626,-54.09684
2022-07-22 20:49:01+00:00,309.543,18.24,12.09,47.84626,-54.09684
2022-07-22 20:59:01+00:00,306.408,17.9,12.09,47.84626,-54.09684
2022-07-22 21:09:01+00:00,304.9831,17.7,12.09,47.84626,-54.09684
2022-07-22 21:19:00+00:00,299.9714,17.5,12.09,47.84626,-54.09684
2022-07-22 21:29:00+00:00,291.873,17.46,12.09,47.84626,-54.09684
2022-07-22 21:39:00+00:00,288.0348,17.49,12.09,47.84626,-54.09684
2022-07-22 21:49:00+00:00,287.2947,17.77,12.09,47.84626,-54.09684
2022-07-22 21:59:00+00:00,282.2214,18.0,12.09,47.84626,-54.09684
2022-07-22 22:09:00+00:00,275.0514,17.9,12.09,47.84626,-54.09684
2022-07-22 22:19:01+00:00,270.2681,18.03,12.09,47.84626,-54.09684
2022-07-22 22:29:01+00:00,267.463,18.1,12.09,47.84626,-54.09684
2022-07-22 22:39:01+00:00,263.4381,18.26,12.09,47.84626,-54.09684
2022-07-22 22:49:01+00:00,255.9064,18.42,12.09,47.84626,-54.09684
2022-07-22 22:59:01+00:00,251.3281,18.5,12.09,47.84626,-54.09684
2022-07-22 23:09:01+00:00,246.5881,18.5,12.09,47.84626,-54.09684
2022-07-22 23:19:00+00:00,243.7197,18.54,12.09,47.84626,-54.09684
2022-07-22 23:29:00+00:00,238.5014,18.6,12.09,47.84626,-54.09684
2022-07-22 23:39:00+00:00,235.8181,18.69,12.09,47.84626,-54.09684
2022-07-22 23:49:00+00:00,235.0181,18.73,12.09,47.84626,-54.09684
2022-07-22 23:59:00+00:00,231.7197,18.8,12.09,47.84626,-54.09684
